Regional Weather Roundup
Issued by NWS

Home | Current Version | Previous Version | Text Only | Print | Product List | Glossary Off
Versions: 1 2 3 4 5 6 7 8 9 10 11 12 13 14 15 16 17 18 19 20 21 22 23 24 25 26 27

000
ASUS45 KBOU 230507
RWRCO

WEATHER ROUNDUP FOR COLORADO
NATIONAL WEATHER SERVICE DENVER/BOULDER CO
1100 PM MDT WED MAR 22 2017

NOTE: "FAIR" INDICATES FEW OR NO CLOUDS BELOW 12000 FEET WITH NO
SIGNIFICANT WEATHER AND/OR OBSTRUCTIONS TO VISIBILITY.

COZ001>005-013-030-031-230600-
...NORTHWEST COLORADO...

CITY           SKY/WX    TMP DP  RH WIND       PRES   REMARKS
CRAIG          FAIR      42  31  64 CALM      29.85F
HAYDEN         FAIR      46  28  49 N5        29.87F
MEEKER         MOCLDY    44  33  65 NE5       29.84F
MOUNT WERNER   NOT AVBL
STEAMBOAT SPGS FAIR      44  29  56 NW5       29.86F
WALDEN         NOT AVBL
$$

COZ006>008-011-230600-
...WEST CENTRAL VALLEYS...

CITY           SKY/WX    TMP DP  RH WIND       PRES   REMARKS
GRAND JUNCTION FAIR      57  28  33 E3        29.74F
MONTROSE       FAIR      51  27  39 SE8       29.82F
EAGLE          CLEAR     45  28  53 VRB5      29.88F
RIFLE          FAIR      50  35  56 SE7       29.80F
DELTA          MOCLDY    59  28  31 N9        29.79F
NUCLA          MOCLDY    54  23  30 CALM      29.86F
$$

COZ017>023-064>068-230600-
...SOUTHWEST COLORADO...

CITY           SKY/WX    TMP DP  RH WIND       PRES   REMARKS
DURANGO        FAIR      47  24  40 N3        29.94F
CORTEZ         FAIR      59  20  22 SW10      29.86F
PAGOSA SPRINGS FAIR      44  30  57 CALM      30.00F
TELLURIDE      MOCLDY    50  16  25 S10G20    30.01S
WOLF CREEK PAS CLOUDY    32  19  59 S15       30.21F WCI  22
$$

COZ009-010-012-014-032>034-037-058>063-230600-
...CENTRAL COLORADO...

CITY           SKY/WX    TMP DP  RH WIND       PRES   REMARKS
ASPEN          FAIR      52  20  28 S15       29.91F
BUENA VISTA    MOCLDY    46  14  27 NW3       29.97F
COPPER MTN     FAIR      37  12  35 MISG      30.11F
BERTHOUD PASS  FAIR      32  21  64 S23G31    30.16F WCI  19
COTTONWOOD PAS MOCLDY    48  14  25 SW17G28   30.07F
GUNNISON       FAIR      42  27  55 N8        29.97F
KREMMLING      FAIR      43  28  56 CALM      29.91F
LEADVILLE      FAIR      39  17  41 S13       30.02F
MONARCH PASS   CLOUDY    34  21  60 SW29G45   30.26F WCI  20
SALIDA         FAIR      49  15  25 W3        30.04F
SUNLIGHT       CLOUDY    36  18  48 S7        30.05F
WILKERSON PASS FAIR      37   9  30 SW12G26   30.14F
$$

COZ069>075-230600-
...SAN LUIS VALLEY/SANGRE DE CRISTO MOUNTAINS...

CITY           SKY/WX    TMP DP  RH WIND       PRES   REMARKS
ALAMOSA        FAIR      49  24  37 SW8       29.97F
LA VETA PASS   NOT AVBL
SAGUACHE       MOCLDY    48  21  34 N10       30.00S
$$

COZ035-036-038>040-230600-
...NORTHERN COLORADO FRONT RANGE...

CITY           SKY/WX    TMP DP  RH WIND       PRES   REMARKS
DENVER INTL AP FAIR      50  34  54 S6        29.81F
DMNS CITY PARK   N/A     55  32  41 E9        29.79F
AURORA         MOCLDY    55  35  46 S16       29.82F
FRONT RANGE AP NOT AVBL
ERIE MUNI ARPT FAIR      47  32  55 CALM      29.79F
BOULDER MUN AP FAIR      54  32  43 CALM      29.79F
CENTENNIAL     FAIR      57  28  33 S18       29.83F
BROOMFIELD     NOT AVBL
FORT COLLINS   FAIR      53  36  52 CALM      29.80F
LONGMONT       FAIR      49  33  54 CALM      29.81F
$$

COZ041-046-047-076>085-087-088-230600-
...PIKES PEAK/PALMER DIVIDE AND SOUTHERN FOOTHILLS...

CITY           SKY/WX    TMP DP  RH WIND       PRES   REMARKS
COLO. SPRINGS  FAIR      48  35  60 E8        29.91F
A. F. ACADEMY  FAIR      38  28  67 N5        29.91F
SCHRIEVER AFB  FAIR      47  37  67 NW7       29.91F
ELLICOTT         N/A    N/A N/A N/A E10       29.89F
FALCON         FAIR      46  36  69 CALM      29.94F
FORT CARSON    PTCLDY    47  29  51 NW5       29.89F
LIMON          FAIR      46  39  76 SE10      29.88F
MONUMENT HILL  FAIR      43  36  75 S10       29.93F
TRINIDAD       FAIR      64  38  38 S17G30    29.89F
$$

COZ042>045-048>051-090-091-230600-
...NORTHEAST COLORADO...

CITY           SKY/WX    TMP DP  RH WIND       PRES   REMARKS
GREELEY ARPT   FAIR      54  35  48 SE7       29.79S
AKRON          FAIR      46  35  65 SE15      29.84F
BURLINGTON     FAIR      48  39  71 S23       29.88F
WRAY           NOT AVBL
STERLING       FAIR      52  37  58 S13       29.83F
HOLYOKE        FAIR      46  34  61 SE17      29.89F
FORT MORGAN    FAIR      51  36  56 E10       29.83F
$$

COZ086-089-092>099-230600-
...SOUTHEAST COLORADO...

CITY           SKY/WX    TMP DP  RH WIND       PRES   REMARKS
PUEBLO         FAIR      49  30  48 W7        29.83F
LA JUNTA       FAIR      66  42  41 MISG      29.83S
LAMAR          FAIR      54  43  66 E8        29.86F
SPRINGFIELD      N/A     52  45  77 S16       29.93S
$$




USA.gov is the U.S. government's official web portal to all federal, state and local government web resources and services.